Regional Weather Roundup
Issued by NWS

Home | Current Version | Previous Version | Graphics & Text | Print | Product List | Glossary On
Versions: 1 2 3 4 5 6 7 8 9 10 11 12 13 14 15 16 17 18 19 20 21 22 23 24 25 26 27 28 29 30 31 32 33 34 35 36 37 38 39 40 41 42 43 44 45 46 47 48 49 50
000
ASUS43 KLSX 310759
RWRMO

WEATHER SUMMARY FOR MISSOURI
NATIONAL WEATHER SERVICE SPRINGFIELD MO
200 AM CST SAT JAN 31 2015

NOTE: "FAIR" INDICATES FEW OR NO CLOUDS BELOW 12,000 FEET WITH NO
       SIGNIFICANT WEATHER AND/OR OBSTRUCTIONS TO VISIBILITY.
       CURRENT SKY AND/OR WEATHER CONDITIONS ARE NOT AVAILABLE FOR
       CHILLICOTHE AND FARMINGTON.

MOZ001>031-035>038-043-044-053-054-310900-
...NORTHERN AND WESTERN MISSOURI...

CITY           SKY/WX    TMP DP  RH WIND       PRES   REMARKS
KANSAS CTY INT CLOUDY    34  24  67 SW6       30.30F WCI  29
KANSAS C DTWN  CLOUDY    38  23  55 S6        30.31F
LEE`S SUMMIT   CLOUDY    37  20  50 SW9       30.31F
ST JOSEPH      CLOUDY    34  26  72 S6        30.30F WCI  29
CHILLICOTHE      N/A     30  21  69 S3        30.32F
KIRKSVILLE     MOCLDY    28  20  71 SW7       30.31F WCI  21

$$
MOZ066>068-077>081-088>096-101>105-310900-
...SOUTHWEST MISSOURI...

CITY           SKY/WX    TMP DP  RH WIND       PRES   REMARKS
SPRINGFIELD    CLOUDY    39  20  46 SE7       30.31F
JOPLIN         CLOUDY    39  29  67 CALM      30.32F

$$
MOZ032>034-039>042-045>050-055>058-069>072-310900-
...CENTRAL MISSOURI...

CITY           SKY/WX    TMP DP  RH WIND       PRES   REMARKS
COLUMBIA       CLOUDY    30  21  69 S6        30.33F WCI  24
JEFFERSON CITY CLOUDY    31  21  66 E3        30.35F
ROLLA          CLOUDY    34  17  50 S8        30.32F WCI  27
SEDALIA        CLOUDY    33  21  61 S7        30.33F WCI  27
OSAGE BEACH    CLOUDY    36  18  48 S5        30.34F

$$
MOZ051-052-059>065-310900-
...EAST CENTRAL MISSOURI...

CITY           SKY/WX    TMP DP  RH WIND       PRES   REMARKS
ST LOUIS INTL  CLOUDY    33  20  58 S7        30.37F WCI  27
SPIRIT OF STL  CLOUDY    26  20  77 CALM      30.36F
ST CHARLES     CLOUDY    27  23  85 E3        30.37F

$$
MOZ072>076-082>087-097>100-106>115-310900-
...SOUTH CENTRAL AND SOUTHEAST MISSOURI...

CITY           SKY/WX    TMP DP  RH WIND       PRES   REMARKS
CAPE GIRARDEAU CLOUDY    29  24  82 NE3       30.40F
FARMINGTON     CLOUDY    30  19  64 S5        30.39F WCI  25
POPLAR BLUFF   PTCLDY    29  25  85 CALM      30.39F
WEST PLAINS    CLOUDY    33  23  66 SE3       30.36F

$$


USA.gov is the U.S. government's official web portal to all federal, state and local government web resources and services.